Location: Brno
(49.2000°N, 16.6330°E)
Time: 19:03:22
(UTC+02:00)

Transit 4A - Pass Details

Date: 03 August 2021
Orbit: 871 x 974 km, 66.8° (Epoch: 16 September)

Event Time Altitude Azimuth Distance (km) Brightness Sun altitude
Rises 00:49:26 0° 215° (SW) 3,486 - -23.3°
Reaches altitude 10° 00:51:56 10° 216° (SW) 2,539 - -23.3°
Exits shadow 00:55:53 45° 220° (SW) 1,183 8.1 -23.3°
Maximum altitude 00:57:48 85° 306° (NW) 884 7.7 -23.3°
Drops below altitude 10° 01:03:39 10° 35° (NE) 2,528 10.9 -23.3°
Sets 01:06:08 0° 36° (NE) 3,470 11.8 -23.3°
